Total_Precipitation_Accumulation
0.23 0.35 0.76 0.91 0.95 0.97 0.97 0.92 0.83 0.79 0.80 0.90 0.94 0.91 0.84 0.79 0.74 0.67 0.65 0.69 0.75 0.92 1.01 1.01 0.98 0.96 0.89 0.83 0.75 0.57 0.49 0.41 0.38 0.36 0.33 0.39 0.45 0.45 0.38 0.37 0.46 0.43 0.54
0.22 0.31 0.68 0.96 1.05 1.05 1.05 0.96 0.84 0.75 0.78 0.87 0.97 0.98 0.97 0.89 0.76 0.73 0.73 0.76 0.87 0.99 1.03 1.09 0.96 0.87 0.77 0.67 0.55 0.40 0.31 0.23 0.19 0.17 0.14 0.21 0.32 0.39 0.35 0.36 0.44 0.50 0.54
0.26 0.37 0.65 0.98 1.14 1.17 1.15 1.05 0.89 0.77 0.79 0.80 0.94 1.01 1.05 0.99 0.93 0.88 0.85 0.88 0.97 1.01 1.01 0.98 0.92 0.79 0.62 0.49 0.39 0.31 0.23 0.16 0.13 0.11 0.14 0.22 0.29 0.42 0.44 0.41 0.47 0.58 0.53
0.32 0.46 0.68 1.05 1.26 1.30 1.16 1.07 0.96 0.87 0.80 0.79 0.84 0.93 1.03 1.07 1.11 1.04 1.01 1.00 0.99 0.95 0.93 0.89 0.75 0.66 0.55 0.40 0.32 0.29 0.20 0.14 0.11 0.12 0.19 0.27 0.32 0.58 0.65 0.57 0.57 0.58 0.53
0.41 0.57 0.85 1.23 1.41 1.42 1.32 1.22 1.13 0.98 0.84 0.83 0.85 0.85 0.93 1.02 1.11 1.20 1.23 1.14 1.01 0.83 0.81 0.81 0.67 0.59 0.55 0.45 0.35 0.29 0.24 0.16 0.11 0.14 0.24 0.32 0.44 0.80 0.79 0.68 0.65 0.62 0.57
0.59 0.80 1.02 1.32 1.46 1.45 1.40 1.35 1.30 1.11 0.97 1.00 0.98 0.91 0.93 0.96 1.06 1.19 1.20 1.08 0.96 0.83 0.77 0.71 0.65 0.59 0.55 0.48 0.40 0.33 0.27 0.18 0.12 0.17 0.26 0.32 0.46 0.82 0.80 0.68 0.68 0.67 0.65
0.82 1.00 1.18 1.40 1.53 1.49 1.46 1.44 1.40 1.33 1.24 1.18 1.14 1.05 1.03 1.02 1.04 1.08 1.08 0.94 0.87 0.84 0.81 0.77 0.68 0.65 0.61 0.50 0.45 0.38 0.29 0.16 0.13 0.21 0.25 0.33 0.50 0.78 0.77 0.67 0.68 0.70 0.70
1.10 1.26 1.37 1.57 1.69 1.62 1.53 1.47 1.48 1.54 1.51 1.44 1.38 1.29 1.18 1.17 1.13 1.03 0.97 0.86 0.83 0.86 0.87 0.84 0.74 0.66 0.62 0.53 0.46 0.41 0.29 0.14 0.13 0.17 0.21 0.31 0.48 0.71 0.74 0.66 0.67 0.72 0.73
1.49 1.62 1.77 1.79 1.74 1.75 1.70 1.63 1.57 1.59 1.63 1.65 1.55 1.47 1.33 1.27 1.19 1.04 0.93 0.91 0.87 0.84 0.84 0.82 0.81 0.71 0.61 0.54 0.46 0.39 0.25 0.14 0.13 0.17 0.21 0.30 0.50 0.81 0.83 0.73 0.67 0.67 0.69
1.98 2.05 2.16 2.17 2.01 1.90 1.79 1.74 1.69 1.63 1.71 1.76 1.64 1.38 1.20 1.17 1.17 1.05 0.85 0.89 0.94 0.87 0.81 0.77 0.79 0.76 0.61 0.51 0.43 0.38 0.26 0.17 0.16 0.19 0.24 0.31 0.52 0.83 0.88 0.77 0.74 0.71 0.73
2.43 2.42 2.39 2.44 2.38 2.24 2.08 1.85 1.83 1.79 1.80 1.74 1.60 1.40 1.28 1.25 1.14 1.01 0.74 0.70 0.83 0.85 0.79 0.74 0.73 0.75 0.62 0.48 0.42 0.32 0.25 0.20 0.21 0.25 0.26 0.38 0.63 0.79 0.85 0.79 0.76 0.76 0.78
2.58 2.64 2.60 2.60 2.61 2.51 2.33 2.19 2.06 1.89 1.86 1.74 1.50 1.39 1.39 1.30 1.20 0.99 0.82 0.71 0.80 0.81 0.84 0.80 0.74 0.71 0.63 0.50 0.46 0.38 0.28 0.25 0.25 0.27 0.31 0.44 0.67 0.79 0.81 0.82 0.83 0.78 0.76
2.82 2.97 2.95 2.89 2.95 2.98 2.75 2.47 2.34 2.10 1.91 1.90 1.65 1.50 1.43 1.47 1.44 1.32 1.09 0.93 0.91 0.83 0.81 0.81 0.74 0.59 0.52 0.48 0.44 0.36 0.30 0.29 0.28 0.29 0.37 0.41 0.61 0.78 0.79 0.84 0.87 0.87 0.86
2.99 3.19 3.42 3.34 3.27 3.28 3.08 2.78 2.52 2.32 2.07 1.95 1.90 1.73 1.59 1.52 1.44 1.36 1.18 1.01 0.94 0.81 0.77 0.82 0.75 0.60 0.55 0.47 0.46 0.44 0.39 0.34 0.32 0.34 0.38 0.39 0.49 0.73 0.87 0.98 0.97 0.90 0.93
2.86 3.17 3.54 3.52 3.40 3.30 3.15 2.90 2.59 2.45 2.26 2.09 2.13 2.07 1.85 1.67 1.54 1.46 1.38 1.20 1.09 0.93 0.78 0.78 0.84 0.75 0.71 0.65 0.55 0.48 0.47 0.42 0.37 0.36 0.37 0.39 0.43 0.64 0.83 0.96 1.00 1.05 1.06
2.85 3.04 3.39 3.51 3.39 3.34 3.18 2.91 2.60 2.38 2.27 2.22 2.07 2.00 1.99 1.82 1.69 1.62 1.50 1.31 1.19 1.05 0.89 0.79 0.81 0.85 0.82 0.78 0.70 0.61 0.58 0.52 0.43 0.41 0.38 0.40 0.44 0.52 0.70 0.82 0.92 1.07 1.22
2.88 3.10 3.22 3.43 3.52 3.33 3.26 2.98 2.66 2.55 2.35 2.21 2.10 1.93 1.93 1.90 1.80 1.77 1.64 1.40 1.27 1.25 1.12 1.00 0.98 0.99 0.91 0.78 0.68 0.65 0.63 0.57 0.51 0.48 0.43 0.41 0.41 0.45 0.59 0.75 0.84 1.00 1.20
2.91 3.14 3.20 3.25 3.40 3.38 3.31 3.19 2.77 2.55 2.50 2.30 2.19 2.06 1.94 1.94 1.94 1.94 1.81 1.59 1.55 1.61 1.48 1.26 1.15 1.08 0.97 0.86 0.74 0.71 0.66 0.60 0.52 0.50 0.49 0.44 0.41 0.42 0.54 0.74 0.83 0.93 1.07
2.81 3.09 3.27 3.26 3.29 3.48 3.48 3.43 3.27 2.88 2.56 2.50 2.44 2.20 1.95 1.90 1.95 1.93 1.87 1.79 1.80 1.80 1.73 1.53 1.40 1.31 1.14 1.02 0.93 0.88 0.85 0.78 0.70 0.61 0.56 0.56 0.53 0.53 0.67 0.85 0.93 0.94 0.96
2.80 3.04 3.27 3.28 3.26 3.54 3.78 3.70 3.56 3.31 2.79 2.48 2.42 2.28 2.10 1.96 1.91 1.90 1.82 1.88 1.94 1.89 1.82 1.76 1.61 1.50 1.39 1.30 1.22 1.08 1.02 0.98 0.86 0.70 0.62 0.62 0.63 0.66 0.77 0.85 0.87 0.95 0.97
2.70 2.91 3.11 3.20 3.19 3.28 3.50 3.52 3.34 3.14 2.91 2.55 2.35 2.32 2.25 2.16 2.14 2.06 1.88 1.89 1.99 1.87 1.74 1.80 1.86 1.82 1.71 1.58 1.51 1.33 1.19 1.07 0.95 0.75 0.63 0.62 0.65 0.70 0.74 0.78 0.82 0.75 0.67
2.35 2.72 2.94 3.13 3.29 3.17 3.05 3.19 3.24 3.22 3.08 2.84 2.62 2.53 2.36 2.23 2.17 2.17 2.14 2.05 2.11 2.11 2.01 1.91 1.93 1.99 1.90 1.84 1.79 1.71 1.49 1.29 1.02 0.81 0.68 0.63 0.64 0.70 0.71 0.70 0.68 0.68 0.59
2.01 2.37 2.66 2.87 3.12 3.25 3.20 3.32 3.37 3.32 3.18 2.95 2.69 2.53 2.41 2.33 2.26 2.17 2.19 2.23 2.22 2.24 2.16 2.05 1.98 1.97 1.99 1.91 1.85 1.96 1.67 1.32 1.06 0.91 0.75 0.68 0.66 0.68 0.70 0.72 0.68 0.65 0.61
1.76 2.02 2.28 2.61 2.88 3.11 3.26 3.21 3.12 3.06 2.87 2.68 2.64 2.73 2.64 2.44 2.32 2.28 2.22 2.21 2.26 2.23 2.16 2.19 2.18 2.04 2.03 2.02 1.96 1.81 1.61 1.34 1.24 1.09 0.92 0.82 0.75 0.70 0.69 0.69 0.67 0.65 0.64
1.56 1.81 1.98 2.25 2.56 2.74 2.77 2.82 2.88 2.85 2.79 2.73 2.78 2.76 2.74 2.53 2.31 2.25 2.24 2.20 2.18 2.19 2.18 2.21 2.24 2.24 2.13 2.05 1.97 1.88 1.79 1.58 1.38 1.32 1.15 1.01 0.97 0.86 0.78 0.75 0.74 0.72 0.68
1.31 1.55 1.77 1.86 2.09 2.32 2.39 2.47 2.58 2.52 2.55 2.58 2.60 2.68 2.71 2.57 2.33 2.20 2.17 2.13 2.11 2.10 2.10 2.17 2.24 2.29 2.24 2.11 1.99 1.83 1.75 1.66 1.50 1.45 1.33 1.13 1.09 0.99 0.93 0.88 0.83 0.81 0.82